星链-4428 (STARLINK-4428 )

导读 | 豆包AI

STARLINK-4428是美国SpaceX公司星链(Starlink)星座的成员卫星,于2022年8月31日发射。星链计划旨在构建全球卫星互联网,为偏远地区提供低延迟高速宽带服务。STARLINK-4428属于低轨通信卫星,采用平板设计、氪霍尔推进器,具备自主避撞能力,寿命末期会坠入大气层烧毁,服务全球互联通信网络覆盖。

基本信息
目录编号:
53672
目录名称:
STARLINK-4428
国际标识:
2022-105AA
轨道中心:
EARTH
卫星名称:
星链-4428
卫星全名:
星链-4428 (STARLINK-4428 )
卫星状态:
在轨 (已飞行1337 天)
发射日期:
2022-08-31 UTC
国别 :
美国 (US)
星等 :
--
轨道信息
数据来源 国际轨道数据 AOE轨道数据
星历时间 2026-04-29T13:09:55+0800
7小时前
查看轨道信息
2026-04-27T01:00:00+0800
2天前
查看轨道信息
半长轴 6927.663km 6927.627km
偏心率 0.0002289 0.0002323
轨道倾角 97.559° 97.572°
近地点辐角 94.896° 79.525°
升交点赤经 359.892° 357.435°
平近点角 265.253° 21.035°
近地点 547.94km 547.88km
远地点 551.112km 551.1km
周期 95.640分钟 95.639分钟
每日圈数 15.056452 15.056572
详细信息
固有亮度:
5
最大亮度:
2.5
卫星平台:
Starlink v1.5
覆盖范围:
全球
运营商:
太空探索技术公司
运营商所在国:
美国
制造商(研发单位):
太空探索技术公司
制造商所在国:
美国
使用方式:
暂无
卫星简介
星链(Starlink)计划是由太空探索技术公司(SpaceX)提出的一个巨型低轨卫星互联网星座项目,计划在2019年至2024年间在太空搭建由约1.2万颗卫星组成的“星链”网络,其中1584颗将部署在地球上空550千米处的近地轨道,并从2020年开始工作。该卫星仍在工作。
2D轨道图
3D轨道图
轨道高度分析图
轨道倾角分析图
轨道综合分析图
查看轨道综合分析图